Theta_e
320 318 317 316 316 315 315 315 315 316 317 318 319 319 319 319 321 322 322 323 324 325 325 325 324 324 323 323 324 324 324 325 327 326 326 325 325 325 325 325 325 325
320 318 316 316 316 315 315 316 316 316 317 317 318 317 317 318 321 323 323 324 325 325 325 324 324 324 323 322 323 323 323 324 325 325 325 325 324 325 325 325 325 325
319 318 317 316 316 316 316 316 316 317 317 317 317 317 317 319 321 323 323 324 325 324 324 324 324 324 323 323 322 322 322 322 324 325 325 325 325 325 325 325 325 325
319 318 317 316 316 316 316 316 316 317 317 318 318 318 319 321 321 321 321 322 322 321 321 321 321 321 321 322 322 322 322 322 323 325 326 325 325 326 326 325 325 325
319 318 318 317 316 316 316 316 316 317 318 318 318 319 322 322 320 321 324 326 323 321 321 322 322 322 323 323 323 323 323 323 323 324 326 326 327 327 327 327 327 327
319 318 318 317 316 316 316 316 317 317 318 318 319 323 325 324 323 325 328 328 325 324 325 326 326 326 327 327 327 326 327 326 325 325 326 327 327 328 328 327 328 328
320 318 318 318 316 316 316 317 317 318 318 319 322 326 327 325 326 328 328 328 327 327 328 328 328 328 328 329 328 328 328 328 328 328 327 328 328 329 329 328 328 328
321 318 318 318 317 316 316 317 318 318 318 321 324 327 327 327 328 328 328 328 327 328 329 329 329 329 329 329 329 329 329 329 329 329 329 329 329 329 329 330 329 328
321 319 319 318 317 317 317 317 318 318 319 321 324 326 327 327 328 328 328 327 327 327 329 329 329 329 329 329 329 329 329 329 330 329 329 329 329 329 329 329 329 329
321 320 320 319 318 318 317 317 318 318 318 320 324 327 327 326 327 327 328 327 326 326 328 328 329 329 329 329 329 329 329 329 329 329 329 329 330 329 329 329 329 328
321 320 320 319 320 318 318 317 317 318 318 321 324 326 326 325 325 326 326 326 325 325 327 328 329 329 329 329 328 329 329 328 328 329 329 329 330 329 329 329 329 329
322 321 320 320 319 318 318 318 317 318 319 322 323 323 324 323 323 325 326 325 325 324 326 327 328 328 327 327 328 328 328 327 327 327 328 328 329 328 327 327 328 329
322 321 320 319 319 318 318 318 318 318 320 322 323 321 321 322 322 325 326 324 324 325 326 327 327 326 326 326 326 325 325 325 326 327 327 326 326 326 325 324 325 327
322 322 321 319 320 320 319 318 318 319 321 322 322 321 321 321 323 325 326 324 325 326 327 327 326 326 326 325 324 323 324 326 326 326 325 324 324 325 325 324 324 325
324 322 321 321 322 322 318 318 319 320 321 321 321 321 320 321 324 326 326 325 326 327 326 326 326 326 325 323 323 324 326 326 327 327 326 324 325 325 326 325 324 324
326 323 322 323 324 321 318 319 320 322 323 320 319 320 320 321 325 327 327 326 327 326 325 325 325 325 324 323 324 325 326 326 326 326 326 325 325 326 325 324 323 323
325 323 324 326 325 322 319 320 321 324 324 320 320 320 320 323 327 329 328 326 326 325 324 325 324 323 323 323 325 326 327 327 326 326 326 326 326 326 325 324 323 322
325 325 327 329 329 326 325 323 322 323 321 319 320 321 321 325 330 331 329 326 325 325 324 324 323 322 322 323 323 325 328 329 328 327 327 327 327 327 327 327 326 323
328 325 328 331 330 327 328 327 322 321 321 320 320 321 322 326 330 330 328 326 325 324 324 324 324 326 326 325 324 325 327 329 330 329 328 328 328 329 329 329 328 326
330 326 330 334 330 326 329 331 324 321 321 321 321 321 323 326 328 328 326 325 324 324 324 325 327 328 329 328 328 328 328 329 330 330 329 328 328 328 328 329 329 328
330 328 333 334 330 328 332 332 325 320 320 321 321 321 322 324 327 327 325 323 323 324 325 326 327 330 330 328 328 329 329 330 330 329 328 327 327 326 327 328 328 328
331 330 335 333 329 331 334 329 323 320 319 320 320 321 322 325 327 327 324 324 323 324 326 327 328 331 331 329 328 329 329 329 329 329 328 327 326 326 327 328 328 328
332 331 334 333 330 334 335 328 322 320 320 320 320 321 324 328 328 326 324 324 324 326 328 330 330 332 331 330 330 330 329 328 328 328 326 324 325 326 326 327 328 327
334 332 334 332 330 334 337 331 325 322 321 320 320 322 327 329 327 325 325 326 327 330 332 332 331 331 331 331 330 330 329 328 327 326 324 323 324 325 325 327 327 325
336 335 335 332 330 334 337 335 331 328 325 322 321 324 328 328 327 327 328 330 331 333 335 333 332 331 331 331 330 329 329 329 327 325 323 323 324 324 324 325 325 323
338 338 337 335 333 335 337 336 334 333 331 327 324 328 332 331 328 329 330 332 333 334 333 332 332 331 330 330 330 329 328 327 327 325 323 323 323 323 323 323 323 323
Wind_Speed
18 18 16 15 14 14 15 16 15 14 13 13 12 12 11 10 10 9 8 7 6 6 7 7 6 5 6 6 6 6 6 7 7 7 7 7 7 8 8 9 9 10
20 19 17 16 15 15 16 16 15 14 13 12 12 11 11 11 11 9 8 7 7 7 7 6 6 7 7 7 7 7 7 7 8 9 8 8 8 9 10 10 11 12
22 20 18 17 16 16 16 15 14 14 13 12 12 11 10 10 10 9 8 7 7 6 6 6 7 8 8 9 8 8 8 8 8 9 9 9 9 10 11 12 13 13
23 21 19 18 17 16 15 15 15 15 14 12 10 9 9 8 8 8 6 5 4 5 5 6 7 7 8 8 9 9 9 9 9 10 11 10 10 11 12 13 14 14
24 21 20 18 18 17 16 15 15 14 13 11 9 9 9 9 9 7 5 3 3 3 3 3 3 4 4 5 6 7 8 9 10 12 13 13 12 12 12 13 15 15
25 22 20 19 19 18 16 15 14 14 12 11 10 10 10 10 9 7 5 5 5 4 3 2 2 2 3 5 6 7 8 9 9 10 14 15 14 14 14 15 16 16
26 23 21 21 20 18 16 15 15 14 13 12 12 11 10 9 8 7 6 6 6 5 4 4 4 4 5 7 9 10 11 11 11 10 12 13 15 15 15 16 17 17
26 24 23 23 21 19 18 16 16 14 14 14 13 12 10 9 7 7 6 6 6 6 6 6 6 7 7 9 12 13 13 13 13 12 12 13 15 16 17 17 18 19
29 26 25 24 23 21 19 18 16 15 15 15 14 13 11 9 8 8 8 8 8 8 8 8 9 10 10 12 13 14 15 15 15 14 15 15 16 17 18 18 19 20
31 29 27 26 23 21 20 18 17 16 16 15 15 14 12 10 9 10 10 11 10 10 10 10 11 12 13 14 15 16 17 17 16 16 16 16 16 17 18 19 20 21
32 31 29 26 23 22 21 19 17 16 16 15 15 14 12 10 10 11 11 11 10 10 11 12 13 14 16 17 17 18 18 18 17 16 15 15 15 16 18 19 21 22
34 33 30 27 24 23 21 19 18 16 16 16 14 12 12 12 12 12 12 11 11 11 12 13 15 16 17 18 19 19 19 17 15 14 13 14 15 17 17 18 20 21
36 33 30 27 25 23 21 20 19 17 17 16 14 12 13 14 13 13 12 12 12 13 14 15 16 17 17 18 18 18 17 15 14 13 14 14 16 16 17 18 19 20
39 34 31 28 25 23 21 20 20 19 17 16 15 14 15 15 14 13 13 14 14 15 16 17 17 17 17 17 16 15 14 14 13 13 14 15 16 17 18 18 19 19
43 38 32 28 25 23 22 20 20 17 13 12 15 16 17 16 15 15 15 16 16 17 17 17 16 16 15 14 13 13 13 14 14 14 15 16 18 19 20 20 19 19
44 38 32 28 25 23 21 21 21 14 8 12 18 18 18 17 16 16 17 17 17 18 18 17 16 14 12 11 11 12 13 14 15 16 17 19 20 21 21 20 19 20
38 32 29 27 23 22 20 20 21 16 12 17 22 20 18 18 17 18 18 18 18 19 18 17 15 12 11 12 12 13 14 16 17 18 19 19 20 20 19 19 20 21
30 28 29 27 21 21 20 15 18 20 19 21 23 21 20 19 19 20 19 19 19 19 18 16 14 13 14 15 15 15 16 17 19 20 20 20 20 20 20 21 21 21
28 29 32 28 22 23 18 10 15 24 25 24 24 22 21 20 20 20 20 21 21 20 18 16 14 14 15 17 19 19 19 20 21 23 23 23 22 22 23 23 22 22
31 34 35 31 27 25 19 15 19 25 27 27 25 23 22 21 21 21 21 22 22 20 18 16 15 14 16 17 19 21 22 22 23 24 25 25 24 24 24 25 25 24
36 39 37 34 31 26 21 23 25 26 27 28 26 25 24 22 21 21 22 23 22 20 18 17 15 14 16 17 19 20 21 22 23 24 25 25 24 24 25 27 27 26
39 40 35 32 31 26 22 23 26 26 27 28 27 27 25 23 22 23 23 22 21 20 19 18 16 16 17 19 20 21 21 21 23 23 24 25 25 24 24 26 28 28
39 40 37 34 33 28 24 23 24 25 26 27 28 27 25 25 25 24 24 23 22 21 20 19 18 18 18 20 21 22 22 22 23 22 23 24 24 23 23 24 26 26
37 41 41 40 36 30 24 21 21 23 25 27 27 25 24 25 26 26 25 24 23 22 21 21 21 20 20 21 22 23 24 24 23 22 22 23 22 20 19 20 22 22
37 41 41 39 36 30 23 20 19 19 23 26 25 24 24 26 27 26 25 23 23 22 21 22 23 22 21 21 22 24 26 25 23 21 21 20 18 17 17 19 21 21
39 40 37 34 32 28 24 22 19 18 21 24 24 24 25 27 28 27 26 26 25 23 22 24 25 24 23 23 24 25 25 23 21 20 19 17 15 15 17 19 21 21
Wind_Direction
216 223 226 230 234 237 237 234 230 230 230 232 235 241 244 242 235 231 233 238 239 235 234 239 246 250 251 250 250 250 249 251 253 257 263 267 269 268 268 270 269 268
215 221 224 227 230 231 230 228 227 228 227 227 230 234 235 235 232 227 228 229 226 227 232 243 260 266 264 259 253 249 245 245 247 253 259 265 267 268 267 267 266 267
212 218 222 224 227 226 225 225 225 224 224 224 224 228 231 228 223 216 213 214 217 229 243 258 270 274 275 272 268 266 262 259 259 261 266 268 270 271 269 266 265 267
209 214 219 223 226 224 223 223 224 222 221 221 222 225 219 208 200 191 188 200 220 241 257 267 274 277 279 279 278 280 279 278 277 274 274 274 273 274 273 269 267 268
208 212 217 222 224 221 220 220 222 222 221 220 221 215 201 186 176 169 167 182 206 223 236 253 272 280 287 290 292 293 292 289 286 280 279 278 276 277 277 274 271 271
209 211 215 221 222 219 218 219 220 221 219 219 214 204 189 175 168 167 173 178 186 197 203 227 268 290 302 307 308 309 309 306 300 289 284 282 280 280 280 279 278 278
211 210 213 219 220 218 217 217 218 218 216 214 206 196 187 179 176 181 188 190 196 209 225 248 269 288 300 304 306 306 305 305 306 303 297 293 287 282 282 283 285 285
217 214 214 217 218 217 216 215 215 215 212 209 202 196 194 192 195 202 208 219 225 233 245 256 268 281 289 293 295 294 292 293 295 299 304 305 298 291 287 286 286 287
222 219 217 218 217 216 217 215 214 212 211 208 202 201 204 204 211 219 227 237 244 249 253 258 267 273 277 281 284 286 286 286 288 292 299 305 303 297 293 288 286 286
220 221 220 219 218 218 218 216 213 212 210 208 205 207 211 213 221 231 237 245 254 260 262 266 269 270 274 279 282 284 285 285 285 288 295 300 299 295 293 290 286 285
218 221 220 219 219 219 218 215 212 211 209 208 207 210 218 224 230 235 240 250 261 268 272 275 275 276 279 283 284 283 284 286 285 285 291 294 294 294 294 292 289 286
216 217 217 217 218 218 218 215 211 210 208 208 208 210 219 224 227 233 241 252 263 268 273 277 279 281 282 283 283 284 287 287 284 284 288 289 290 293 295 295 292 288
213 215 215 214 215 217 218 214 209 209 209 210 212 212 217 221 223 233 245 254 260 265 272 278 279 279 280 281 282 284 286 285 283 285 286 286 289 293 296 295 292 288
209 212 214 213 215 217 217 213 209 210 212 214 218 217 218 221 226 238 250 255 259 267 274 276 275 274 276 278 278 279 281 283 284 283 283 284 288 292 295 294 290 287
210 207 208 211 217 215 213 211 206 206 211 216 218 218 219 224 232 245 253 256 262 270 273 272 270 271 274 275 274 276 282 285 285 284 285 287 290 293 295 293 289 287
211 205 203 207 213 210 209 207 202 207 229 222 214 216 220 226 237 247 253 258 264 267 267 265 266 268 272 276 279 283 287 290 291 292 292 293 294 296 295 293 289 286
208 204 206 211 209 206 208 208 209 224 240 219 213 218 222 229 241 249 254 260 261 261 260 261 265 271 276 280 283 287 293 297 298 297 295 295 296 296 295 294 293 288
201 202 210 216 213 210 213 213 222 236 236 220 218 223 226 233 245 250 256 260 257 255 257 260 270 281 284 283 282 285 292 296 297 297 295 293 293 292 292 294 294 292
202 198 205 213 214 213 214 218 231 238 236 227 224 228 231 239 246 250 257 258 254 254 258 264 275 284 287 286 284 286 289 290 292 293 294 294 293 291 290 290 291 292
203 193 197 205 207 209 218 234 234 232 233 231 230 233 236 240 245 251 256 256 254 258 262 266 275 285 292 293 292 291 289 287 287 290 292 294 294 293 291 288 287 288
202 194 194 198 202 207 226 238 231 226 229 231 232 236 239 242 248 253 256 256 258 263 266 268 275 288 299 301 300 297 290 285 286 289 292 294 294 292 290 287 284 283
200 197 195 196 202 211 226 232 227 226 230 232 234 239 244 248 252 254 258 261 264 268 270 272 279 290 299 301 302 300 293 288 288 290 293 294 292 290 287 284 283 284
200 197 196 200 208 216 224 227 226 230 235 236 238 243 249 254 256 258 261 263 266 269 271 274 280 287 292 295 299 300 297 293 291 291 295 295 292 288 284 283 284 288
201 196 197 204 212 218 226 231 230 234 240 241 244 250 256 261 261 262 262 264 268 270 272 278 282 284 287 291 296 297 297 295 293 293 298 300 295 288 283 283 285 289
201 196 202 212 217 221 234 244 243 248 251 249 252 258 262 264 263 261 261 263 266 268 273 283 287 285 284 288 293 296 295 294 292 293 300 303 296 288 286 286 288 291
205 202 211 220 222 227 242 249 252 265 266 258 259 262 262 263 261 260 262 261 260 267 277 287 290 288 285 287 292 296 294 291 291 296 302 302 293 289 289 288 290 293